When you browse on this site, cookies collect data to enhance your experience and personalize the content and advertising you see.
Visit our Privacy Policy to learn more. By continuing to use the site, you agree to this use of cookies and data.
  • In Romania
  • List of Countries
  • For 7 days
  • Water Temperature
  • Satellite Maps
  • Weather Map
  • Weather Widgets
  • user-avatar
    Login

    Hourly Weather Barcelona

    Today, 20 March, Wednesday

    Time Temperature Precipitation Wind Pressure Humidity
    00:00 +28°C° 0 mm 3 mps 759 mmHg 66%
    01:00 +28°C° 0 mm 3 mps 758 mmHg 67%
    02:00 +27°C° 0 mm 2 mps 758 mmHg 68%
    03:00 +27°C° 0 mm 2 mps 758 mmHg 69%
    04:00 +26°C° 0 mm 2 mps 758 mmHg 70%
    05:00 +26°C° 0 mm 2 mps 758 mmHg 71%
    06:00 +28°C° 0 mm 1 mps 759 mmHg 65%
    07:00 +29°C° 0 mm 1 mps 759 mmHg 59%
    08:00 +31°C° 0 mm 1 mps 759 mmHg 53%
    09:00 +35°C° 0 mm 2 mps 759 mmHg 45%
    10:00 +38°C° 0 mm 2 mps 760 mmHg 37%
    11:00 +42°C° 0 mm 3 mps 760 mmHg 30%
    12:00 +41°C° 0 mm 4 mps 759 mmHg 31%
    13:00 +41°C° 0 mm 4 mps 758 mmHg 33%
    14:00 +40°C° 0 mm 5 mps 757 mmHg 34%
    15:00 +39°C° 0 mm 5 mps 757 mmHg 39%
    16:00 +38°C° 0 mm 6 mps 756 mmHg 44%
    17:00 +35°C° 0 mm 6 mps 756 mmHg 49%
    18:00 +34°C° 0 mm 6 mps 756 mmHg 55%
    19:00 +32°C° 0 mm 6 mps 757 mmHg 61%
    20:00 +30°C° 0 mm 6 mps 757 mmHg 67%
    21:00 +30°C° 0 mm 5 mps 758 mmHg 69%
    22:00 +29°C° 0 mm 5 mps 758 mmHg 70%
    23:00 +29°C° 0 mm 4 mps 759 mmHg 71%

    Tomorrow, 21 March, Thursday

    Time Temperature Precipitation Wind Pressure Humidity
    00:00 +29°C° 0 mm 4 mps 758 mmHg 72%
    01:00 +28°C° 0 mm 3 mps 758 mmHg 74%
    02:00 +28°C° 0 mm 3 mps 758 mmHg 75%
    03:00 +27°C° 0 mm 2 mps 758 mmHg 76%
    04:00 +27°C° 0 mm 2 mps 758 mmHg 78%
    05:00 +27°C° 0 mm 2 mps 758 mmHg 79%
    06:00 +28°C° 0 mm 1 mps 758 mmHg 72%
    07:00 +29°C° 0 mm 1 mps 759 mmHg 66%
    08:00 +30°C° 0 mm 1 mps 759 mmHg 59%
    09:00 +34°C° 0 mm 2 mps 759 mmHg 50%
    10:00 +38°C° 0 mm 2 mps 760 mmHg 41%
    11:00 +42°C° 0 mm 3 mps 760 mmHg 32%
    12:00 +40°C° 0 mm 3 mps 759 mmHg 34%
    13:00 +40°C° 0 mm 4 mps 758 mmHg 35%
    14:00 +39°C° 0 mm 5 mps 757 mmHg 36%
    15:00 +37°C° 0 mm 5 mps 756 mmHg 41%
    16:00 +36°C° 0 mm 6 mps 756 mmHg 45%
    17:00 +35°C° 0 mm 6 mps 755 mmHg 50%
    18:00 +33°C° 0 mm 6 mps 756 mmHg 56%
    19:00 +32°C° 0 mm 6 mps 756 mmHg 63%
    20:00 +29°C° 0 mm 6 mps 757 mmHg 69%
    21:00 +29°C° 0 mm 6 mps 758 mmHg 70%
    22:00 +29°C° 0 mm 5 mps 758 mmHg 72%
    23:00 +28°C° 0 mm 5 mps 759 mmHg 73%

    Day after tomorrow, 22 March, Friday

    Time Temperature Precipitation Wind Pressure Humidity
    00:00 +28°C° 0 mm 4 mps 758 mmHg 74%
    01:00 +28°C° 0 mm 4 mps 758 mmHg 75%
    02:00 +27°C° 0 mm 3 mps 758 mmHg 76%
    03:00 +27°C° 0 mm 3 mps 758 mmHg 77%
    04:00 +27°C° 0 mm 2 mps 758 mmHg 79%
    05:00 +26°C° 0 mm 2 mps 757 mmHg 80%
    06:00 +27°C° 0 mm 1 mps 758 mmHg 73%
    07:00 +29°C° 0 mm 1 mps 759 mmHg 67%
    08:00 +30°C° 0 mm 1 mps 760 mmHg 60%
    09:00 +33°C° 0 mm 1 mps 760 mmHg 51%
    10:00 +37°C° 0 mm 2 mps 760 mmHg 42%
    11:00 +40°C° 0 mm 3 mps 760 mmHg 33%
    12:00 +39°C° 0 mm 3 mps 759 mmHg 34%
    13:00 +40°C° 0 mm 4 mps 758 mmHg 34%
    14:00 +39°C° 0 mm 5 mps 757 mmHg 35%
    15:00 +37°C° 0 mm 5 mps 756 mmHg 36%
    16:00 +35°C° 0 mm 5 mps 756 mmHg 37%
    17:00 +34°C° 0 mm 5 mps 755 mmHg 38%
    18:00 +33°C° 0 mm 5 mps 756 mmHg 46%
    19:00 +30°C° 0 mm 6 mps 757 mmHg 54%
    20:00 +29°C° 0 mm 6 mps 758 mmHg 62%
    21:00 +29°C° 0 mm 6 mps 758 mmHg 65%
    22:00 +28°C° 0 mm 5 mps 759 mmHg 67%
    23:00 +28°C° 0 mm 5 mps 759 mmHg 70%

    23 March, Saturday

    Time Temperature Precipitation Wind Pressure Humidity
    00:00 +27°C° 0 mm 4 mps 759 mmHg 71%
    01:00 +27°C° 0 mm 3 mps 759 mmHg 72%
    02:00 +26°C° 0 mm 2 mps 758 mmHg 74%
    03:00 +26°C° 0 mm 2 mps 758 mmHg 75%
    04:00 +26°C° 0 mm 1 mps 758 mmHg 77%
    05:00 +26°C° 0 mm 1 mps 758 mmHg 79%
    06:00 +27°C° 0 mm 1 mps 759 mmHg 72%
    07:00 +28°C° 0 mm 1 mps 759 mmHg 64%
    08:00 +30°C° 0 mm 1 mps 760 mmHg 57%
    09:00 +33°C° 0 mm 1 mps 760 mmHg 46%
    10:00 +38°C° 0 mm 2 mps 760 mmHg 36%
    11:00 +42°C° 0 mm 2 mps 760 mmHg 26%
    12:00 +40°C° 0 mm 3 mps 759 mmHg 29%
    13:00 +40°C° 0 mm 4 mps 758 mmHg 32%
    14:00 +39°C° 0 mm 5 mps 757 mmHg 35%
    15:00 +37°C° 0 mm 5 mps 757 mmHg 38%
    16:00 +35°C° 0 mm 5 mps 756 mmHg 41%
    17:00 +34°C° 0 mm 4 mps 756 mmHg 44%
    18:00 +33°C° 0 mm 4 mps 757 mmHg 50%
    19:00 +30°C° 0 mm 4 mps 757 mmHg 57%
    20:00 +29°C° 0 mm 4 mps 758 mmHg 63%
    21:00 +29°C° 0 mm 4 mps 758 mmHg 65%
    22:00 +29°C° 0 mm 3 mps 759 mmHg 67%
    23:00 +28°C° 0 mm 3 mps 759 mmHg 69%

    24 March, Sunday

    Time Temperature Precipitation Wind Pressure Humidity
    00:00 +28°C° 0 mm 2 mps 759 mmHg 69%
    01:00 +27°C° 0 mm 2 mps 758 mmHg 69%
    02:00 +27°C° 0 mm 1 mps 758 mmHg 68%
    03:00 +27°C° 0 mm 1 mps 758 mmHg 70%
    04:00 +26°C° 0 mm 1 mps 758 mmHg 71%
    05:00 +26°C° 0 mm 1 mps 758 mmHg 73%
    06:00 +27°C° 0 mm 1 mps 759 mmHg 67%
    07:00 +29°C° 0 mm 1 mps 759 mmHg 60%
    08:00 +30°C° 0 mm 1 mps 760 mmHg 54%
    09:00 +33°C° 0 mm 1 mps 760 mmHg 46%
    10:00 +37°C° 0 mm 2 mps 760 mmHg 37%
    11:00 +40°C° 0 mm 3 mps 760 mmHg 29%
    12:00 +40°C° 0 mm 3 mps 759 mmHg 31%
    13:00 +40°C° 0 mm 4 mps 758 mmHg 33%
    14:00 +39°C° 0 mm 5 mps 757 mmHg 34%
    15:00 +37°C° 0 mm 5 mps 756 mmHg 38%
    16:00 +36°C° 0 mm 5 mps 756 mmHg 42%
    17:00 +35°C° 0 mm 5 mps 756 mmHg 46%
    18:00 +34°C° 0 mm 5 mps 756 mmHg 51%
    19:00 +32°C° 0 mm 5 mps 757 mmHg 57%
    20:00 +30°C° 0 mm 5 mps 757 mmHg 62%
    21:00 +30°C° 0 mm 5 mps 757 mmHg 64%
    22:00 +29°C° 0 mm 4 mps 758 mmHg 66%
    23:00 +29°C° 0 mm 4 mps 758 mmHg 68%

    25 March, Monday

    Time Temperature Precipitation Wind Pressure Humidity
    00:00 +28°C° 0 mm 3 mps 758 mmHg 68%
    01:00 +28°C° 0 mm 2 mps 758 mmHg 69%
    02:00 +28°C° 0 mm 2 mps 757 mmHg 69%
    03:00 +27°C° 0 mm 1 mps 757 mmHg 70%
    04:00 +27°C° 0 mm 1 mps 758 mmHg 72%
    05:00 +24°C° 0 mm 0 mps 758 mmHg 73%
    06:00 +26°C° 0 mm 0 mps 758 mmHg 67%
    07:00 +29°C° 0 mm 1 mps 759 mmHg 61%
    08:00 +30°C° 0 mm 1 mps 759 mmHg 54%
    09:00 +34°C° 0 mm 1 mps 759 mmHg 45%
    10:00 +38°C° 0 mm 2 mps 759 mmHg 36%
    11:00 +42°C° 0 mm 2 mps 759 mmHg 27%
    12:00 +42°C° 0 mm 3 mps 758 mmHg 29%
    13:00 +41°C° 0 mm 4 mps 757 mmHg 31%
    14:00 +40°C° 0 mm 5 mps 756 mmHg 32%
    15:00 +39°C° 0 mm 5 mps 756 mmHg 35%
    16:00 +37°C° 0 mm 5 mps 755 mmHg 38%
    17:00 +36°C° 0 mm 5 mps 755 mmHg 41%
    18:00 +34°C° 0 mm 5 mps 755 mmHg 47%
    19:00 +33°C° 0 mm 5 mps 756 mmHg 53%
    20:00 +30°C° 0 mm 5 mps 756 mmHg 58%
    21:00 +30°C° 0 mm 5 mps 757 mmHg 60%
    22:00 +29°C° 0 mm 4 mps 757 mmHg 62%
    23:00 +29°C° 0 mm 4 mps 758 mmHg 63%
    Show more